{"data":{"norad_id":67958,"epoch":"2026-09-19T04:18:43.626240Z","epoch_age_seconds":177378,"freshness":"STALE","line1":"1 67958U 26037AC  26262.17967160  .00010756  00000+0  39978-3 0  9995","line2":"2 67958  42.9984 177.8777 0001360 272.6538  87.4158 15.27581507 32931","mean_motion":15.27581507,"eccentricity":0.000136,"inclination_deg":42.9984,"raan_deg":177.8777,"arg_perigee_deg":272.6538,"mean_anomaly_deg":87.4158,"bstar":0.00039978,"rev_number":3293,"period_min":94.266655716984,"perigee_km":482.11146284786,"apogee_km":483.97770423858,"semimajor_km":6861.1815835432,"source":"CELESTRAK","updated_at":"2026-09-20T09:00:43.712532Z"}}